Regional Weather Roundup
Issued by NWS

Home | Current Version | Previous Version | Graphics & Text | Print | Product List | Glossary On
Versions: 1 2 3 4 5 6 7 8 9 10 11 12 13 14 15 16 17 18 19 20 21 22 23 24 25 26 27 28 29 30 31 32 33 34 35 36 37 38 39 40 41 42 43 44 45 46 47 48 49 50
000
ASUS45 KSLC 240710
RWRUT

UTAH REGIONAL WEATHER ROUNDUP
NATIONAL WEATHER SERVICE SALT LAKE CITY UT
100 AM MDT SUN MAY 24 2015

UTZ001>011-023>025-240800-

NORTHERN UTAH

CITY           SKY/WX    TMP DP  RH WIND       PRES   REMARKS
BRIGHAM CITY   CLOUDY    51  47  84 CALM      29.97S
HILL AFB       MOCLDY    48  43  82 E10       29.97F
LOGAN          MOCLDY    48  44  86 CALM      29.97F
OGDEN          MOCLDY    49  44  83 S7        29.96F
PROVO AIRPORT  CLOUDY    52  41  66 SE8       29.98S
SALT LAKE CITY MOCLDY    51  44  77 SE7       29.96S
VERNAL         PTCLDY    44  38  79 N5        29.97F
WENDOVER       CLOUDY    54  46  76 W3        29.98S
HEBER CITY     PTCLDY    41  37  87 CALM      29.99F
WEST JORDAN    PTCLDY    46  43  87 CALM      29.98S

$$

UTZ012>022-026-027-240800-

SOUTHERN/CENTRAL UTAH

CITY           SKY/WX    TMP DP  RH WIND       PRES   REMARKS
BLANDING       CLOUDY    43  43  99 E5        30.08S
BRYCE CANYON   LGT RAIN  40  37  89 W9        30.05S WCI  34
CEDAR CITY     CLOUDY    46  42  86 SE7       29.98F
DELTA          MOCLDY    47  41  81 S3        29.98S
HANKSVILLE     PTCLDY    46  43  87 NW3       29.99S
MILFORD        CLOUDY    49  45  86 S6        29.97F
MOAB/CYNLANDS  MOCLDY    49  44  83 SE7       29.95F
PRICE          PTCLDY    44  34  67 CALM      29.99R
ST GEORGE      CLOUDY    59  46  63 NE16      29.94S
KANAB          CLOUDY    48  48 100 NW6       30.02S

$$

REGIONAL REPORTS     COLORADO/ARIZONA

CITY           SKY/WX    TMP DP  RH WIND       PRES   REMARKS
CRAIG, CO      CLOUDY    42  36  79 E3        29.99S
GRAND JUNCTION MOCLDY    45  42  89 SE10      29.98R
RIFLE          CLOUDY    46  39  76 NE6       29.99R
MONTROSE       CLOUDY    43  42  97 E3        30.04S
CORTEZ         CLOUDY    44  43  96 CALM      30.02S
PAGE, AZ       LGT RAIN  52  50  93 CALM      29.98S
GRAND CANYON   CLOUDY    45  39  79 SW6       30.05F
KINGMAN        MOCLDY    62  36  37 S10       29.95S
FLAGSTAFF      PTCLDY    43  33  68 W6        30.09F

$$

REGIONAL REPORTS    NEVADA/IDAHO/WYOMING

CITY           SKY/WX    TMP DP  RH WIND       PRES   REMARKS
LAS VEGAS, NV  CLOUDY    74  40  29 SW15      29.81R
ELY            CLOUDY    47  44  90 N9        30.03S
ELKO           CLOUDY    48  46  93 SW5       30.02S
POCATELLO, ID  PTCLDY    48  48 100 NE6       29.98F
BURLEY         MOCLDY    47  45  93 CALM      29.97S FOG
EVANSTON, WY   CLOUDY    40  36  86 SW5       30.02S
ROCK SPRINGS   CLOUDY    42  37  82 NE12      29.99F
KEMMERER       CLOUDY    41  36  81 N7        30.03S

$$



USA.gov is the U.S. government's official web portal to all federal, state and local government web resources and services.